Date String (YYYY-MM-DD hh:mm:ss) UTC,Instrument flags,Ambient pressure (hPa),Sample flow (lpm),Bypass flow (lpm),Sample temperature (°C),Ambient temperature (°C),ASC tube jacket temperature (°C),LED temperature (°C),Box temperature (°C),Sample RH (%),Span deviation,Mass concentration (μg/m³),Mass concentration (μg/m³),Mass concentration (μg/m³)
DateTimeUTC,F1_M11,P_M11,Q1_M11,Q2_M11,T1_M11,T2_M11,T3_M11,T4_M11,T5_M11,U1_M11,ZSPAN_M11,X0_M11,X2_M11,X1_M11
2021-10-27 00:00:00,,0814.7,4.99,0.00,28.4,27.7,00.0,37.5,30.2,17.1,0000.0,0009.14,0001.50,0000.51
2021-10-27 00:01:00,,0815.1,5.00,0.00,28.4,27.7,00.0,37.5,30.2,16.3,0000.0,0008.65,0001.50,0000.51
2021-10-27 00:02:00,,0814.7,4.99,0.00,28.4,27.7,00.0,37.5,30.3,16.9,0000.0,0008.61,0001.43,0000.50
2021-10-27 00:03:00,,0814.8,5.01,0.00,28.5,27.7,00.0,37.5,30.2,15.7,0000.0,0008.28,0001.39,0000.49
2021-10-27 00:04:00,,0815.0,5.00,0.00,28.5,27.7,00.0,37.5,30.2,14.2,0000.0,0007.87,0001.28,0000.47
2021-10-27 00:05:00,,0815.0,4.99,0.00,28.5,27.7,00.0,37.5,30.2,14.1,0000.0,0007.80,0001.22,0000.45
2021-10-27 00:06:00,,0814.7,5.00,0.00,28.5,27.7,00.0,37.5,30.2,14.9,0000.0,0008.31,0001.17,0000.42
2021-10-27 00:07:00,,0814.6,4.99,0.00,28.5,27.7,00.0,37.5,30.2,15.6,0000.0,0008.26,0001.11,0000.41
2021-10-27 00:08:00,,0814.5,5.00,0.00,28.5,27.7,00.0,37.5,30.2,14.6,0000.0,0008.48,0001.05,0000.39
2021-10-27 00:09:00,,0815.1,5.01,0.00,28.5,27.7,00.0,37.6,30.3,13.7,0000.0,0008.05,0000.97,0000.36
2021-10-27 00:10:00,,0815.0,5.01,0.00,28.5,27.7,00.0,37.6,30.3,16.3,0000.0,0007.21,0000.95,0000.35
2021-10-27 00:11:00,,0814.9,5.00,0.00,28.5,27.7,00.0,37.6,30.2,18.3,0000.0,0007.73,0000.95,0000.34
2021-10-27 00:12:00,,0814.9,5.01,0.00,28.4,27.7,00.0,37.6,30.2,18.7,0000.0,0008.21,0000.91,0000.33
2021-10-27 00:13:00,,0814.9,5.00,0.00,28.4,27.6,00.0,37.6,30.1,18.9,0000.0,0007.94,0000.98,0000.34
2021-10-27 00:14:00,,0815.0,4.99,0.00,28.4,27.5,00.0,37.5,30.1,18.8,0000.0,0007.48,0001.04,0000.35
2021-10-27 00:15:00,,0815.0,4.99,0.00,28.3,27.5,00.0,37.5,30.1,18.8,0000.0,0007.57,0001.15,0000.38
2021-10-27 00:16:00,,0815.0,4.99,0.00,28.3,27.4,00.0,37.5,30.0,18.7,0000.0,0008.08,0001.27,0000.40
2021-10-27 00:17:00,,0815.0,5.02,0.00,28.2,27.4,00.0,37.5,30.0,18.7,0000.0,0007.97,0001.30,0000.42
2021-10-27 00:18:00,,0815.1,5.00,0.00,28.2,27.3,00.0,37.5,29.9,18.8,0000.0,0007.90,0001.32,0000.44
2021-10-27 00:19:00,,0815.2,5.01,0.00,28.2,27.3,00.0,37.5,29.9,19.0,0000.0,0007.80,0001.37,0000.46
2021-10-27 00:20:00,,0815.1,5.00,0.00,28.2,27.3,00.0,37.4,29.9,18.9,0000.0,0007.83,0001.43,0000.48
2021-10-27 00:21:00,,0815.1,5.01,0.00,28.1,27.2,00.0,37.4,29.8,19.1,0000.0,0007.51,0001.44,0000.49
2021-10-27 00:22:00,,0815.2,5.01,0.00,28.1,27.2,00.0,37.4,29.8,19.2,0000.0,0007.17,0001.45,0000.51
2021-10-27 00:23:00,,0815.2,4.99,0.00,28.0,27.1,00.0,37.4,29.7,19.3,0000.0,0006.82,0001.42,0000.50
2021-10-27 00:24:00,,0815.1,5.00,0.00,28.0,27.0,00.0,37.3,29.6,19.5,0000.0,0006.63,0001.39,0000.49
2021-10-27 00:25:00,,0815.2,5.01,0.00,27.9,27.0,00.0,37.3,29.6,19.7,0000.0,0007.56,0001.35,0000.49
2021-10-27 00:26:00,,0815.2,4.99,0.00,27.9,26.9,00.0,37.3,29.5,19.8,0000.0,0007.53,0001.31,0000.48
2021-10-27 00:27:00,,0815.2,5.02,0.00,27.8,26.9,00.0,37.2,29.5,19.9,0000.0,0007.40,0001.28,0000.48
2021-10-27 00:28:00,,0815.1,5.00,0.00,27.8,26.9,00.0,37.2,29.5,20.0,0000.0,0007.58,0001.27,0000.47
2021-10-27 00:29:00,,0815.1,5.00,0.00,27.8,26.9,00.0,37.2,29.5,20.0,0000.0,0007.49,0001.25,0000.46
2021-10-27 00:30:00,,0815.1,5.01,0.00,27.8,26.9,00.0,37.2,29.5,20.1,0000.0,0007.42,0001.24,0000.45
2021-10-27 00:31:00,,0815.2,4.98,0.00,27.8,26.9,00.0,37.1,29.5,20.2,0000.0,0007.88,0001.21,0000.46
2021-10-27 00:32:00,,0815.1,5.01,0.00,27.7,26.8,00.0,37.1,29.4,20.0,0000.0,0008.03,0001.24,0000.47
2021-10-27 00:33:00,,0815.5,5.00,0.00,27.7,26.8,00.0,37.1,29.4,19.9,0000.0,0009.50,0001.18,0000.45
2021-10-27 00:34:00,,0815.3,5.00,0.00,27.7,26.8,00.0,37.0,29.3,19.9,0000.0,0009.45,0001.24,0000.46
2021-10-27 00:35:00,,0815.3,5.01,0.00,27.7,26.8,00.0,37.0,29.3,19.6,0000.0,0009.40,0001.29,0000.47
2021-10-27 00:36:00,,0815.3,4.99,0.00,27.6,26.8,00.0,37.0,29.3,19.3,0000.0,0008.75,0001.29,0000.47
2021-10-27 00:37:00,,0815.4,5.00,0.00,27.6,26.8,00.0,37.0,29.3,19.2,0000.0,0008.73,0001.30,0000.47
2021-10-27 00:38:00,,0815.4,5.00,0.00,27.6,26.8,00.0,36.9,29.3,19.3,0000.0,0008.64,0001.33,0000.48
2021-10-27 00:39:00,,0815.4,4.99,0.00,27.6,26.7,00.0,36.9,29.3,19.3,0000.0,0008.01,0001.35,0000.48
2021-10-27 00:40:00,,0815.4,5.01,0.00,27.5,26.7,00.0,36.9,29.3,19.2,0000.0,0008.07,0001.41,0000.48
2021-10-27 00:41:00,,0815.4,5.00,0.00,27.5,26.7,00.0,36.9,29.2,19.5,0000.0,0008.05,0001.41,0000.48
2021-10-27 00:42:00,,0815.4,5.02,0.00,27.5,26.7,00.0,36.8,29.2,19.7,0000.0,0007.46,0001.43,0000.47
2021-10-27 00:43:00,,0815.4,5.00,0.00,27.5,26.6,00.0,36.8,29.2,19.8,0000.0,0007.67,0001.43,0000.47
2021-10-27 00:44:00,,0815.5,5.00,0.00,27.5,26.6,00.0,36.8,29.2,19.9,0000.0,0005.39,0001.42,0000.47
2021-10-27 00:45:00,,0815.4,4.99,0.00,27.5,26.6,00.0,36.8,29.2,19.9,0000.0,0005.31,0001.40,0000.48
2021-10-27 00:46:00,,0815.5,5.01,0.00,27.4,26.6,00.0,36.8,29.1,20.0,0000.0,0005.87,0001.37,0000.48
2021-10-27 00:47:00,,0815.6,4.99,0.00,27.4,26.6,00.0,36.7,29.2,20.2,0000.0,0006.76,0001.41,0000.50
2021-10-27 00:48:00,,0816.1,5.00,0.00,27.4,26.6,00.0,36.7,29.1,20.3,0000.0,0007.64,0001.40,0000.52
2021-10-27 00:49:00,,0816.1,5.00,0.00,27.4,26.6,00.0,36.7,29.1,20.4,0000.0,0007.80,0001.38,0000.52
2021-10-27 00:50:00,,0815.8,5.01,0.00,27.4,26.5,00.0,36.7,29.1,20.4,0000.0,0008.16,0001.40,0000.54
2021-10-27 00:51:00,,0815.7,5.01,0.00,27.3,26.5,00.0,36.7,29.1,20.2,0000.0,0008.21,0001.41,0000.56
2021-10-27 00:52:00,,0815.6,5.00,0.00,27.3,26.4,00.0,36.6,29.0,20.1,0000.0,0008.42,0001.49,0000.59
2021-10-27 00:53:00,,0815.7,4.99,0.00,27.3,26.4,00.0,36.6,29.0,20.0,0000.0,0008.41,0001.49,0000.61
2021-10-27 00:54:00,,0815.7,5.01,0.00,27.3,26.4,00.0,36.6,29.0,20.0,0000.0,0008.11,0001.50,0000.62
2021-10-27 00:55:00,,0815.7,5.00,0.00,27.3,26.4,00.0,36.6,29.0,19.9,0000.0,0007.86,0001.54,0000.63
2021-10-27 00:56:00,,0815.7,5.01,0.00,27.2,26.4,00.0,36.5,29.0,19.8,0000.0,0007.71,0001.55,0000.64
2021-10-27 00:57:00,,0815.7,5.00,0.00,27.2,26.4,00.0,36.5,29.0,19.6,0000.0,0007.27,0001.55,0000.65
2021-10-27 00:58:00,,0815.7,5.00,0.00,27.2,26.4,00.0,36.5,29.0,19.7,0000.0,0006.23,0001.50,0000.65
2021-10-27 00:59:00,,0815.7,5.00,0.00,27.2,26.4,00.0,36.5,29.0,19.7,0000.0,0005.31,0001.57,0000.65
